Regional Weather Roundup
Issued by NWS

Home | Current Version | Previous Version | Text Only | Print | Product List | Glossary Off
Versions: 1 2 3 4 5 6 7 8 9 10 11 12 13 14 15 16 17 18 19 20 21 22 23 24 25 26 27 28 29 30 31 32 33 34 35 36 37 38 39 40 41 42 43 44 45 46 47 48 49 50

006
ASUS45 KSLC 222310
RWRUT

UTAH REGIONAL WEATHER ROUNDUP
NATIONAL WEATHER SERVICE SALT LAKE CITY UT
400 PM MST MON JAN 22 2018

UTZ001>011-023>025-230000-

NORTHERN UTAH

CITY           SKY/WX    TMP DP  RH WIND       PRES   REMARKS
BRIGHAM CITY   CLOUDY    32  19  57 N5        30.29S WCI  28
HILL AFB       CLOUDY    29  19  63 SE3       30.25F
LOGAN          CLOUDY    32  23  69 N6        30.27R WCI  26
OGDEN          CLOUDY    33  18  53 S6        30.26F WCI  28
SALT LAKE CITY PTSUNNY   34  21  59 S10       30.27F WCI  26
TOOELE VALLEY  MOSUNNY   32  21  64 CALM      30.27F
WENDOVER       PTSUNNY   31  20  63 E6        30.26S WCI  25
HEBER CITY     CLOUDY    27  14  59 CALM      30.25R
WEST JORDAN    PTSUNNY   30  18  60 S13       30.28F WCI  20

$$

UTZ011>015-024>027-230000-

CENTRAL/NORTHEAST UTAH

CITY           SKY/WX    TMP DP  RH WIND       PRES   REMARKS
PROVO AIRPORT  CLOUDY    29  19  66 CALM      30.31S
MOAB/CANYONLAN MOSUNNY   36  19  50 CALM      30.25S
DELTA          CLOUDY    28  19  69 CALM      30.29S
PRICE          CLOUDY    29  11  47 S3        30.23S
ROOSEVELT      SUNNY     28  14  54 E6        30.28R WCI  22
VERNAL         PTSUNNY   26  10  50 CALM      30.26R

$$

UTZ013>016-019>022-027-230000-

SOUTHERN UTAH

CITY           SKY/WX    TMP DP  RH WIND       PRES   REMARKS
BRYCE CANYON   SUNNY     35   9  33 NW10      30.19S WCI  27
CEDAR CITY     SUNNY     31  16  54 CALM      30.23S
MILFORD        SUNNY     25  18  74 S3        30.25F
ST GEORGE      MOCLDY    45  19  35 CALM      30.26F
HANKSVILLE     SUNNY     39   9  28 CALM      30.27F
BLANDING         N/A     34  14  44 CALM      30.29S

$$

REGIONAL REPORTS     COLORADO/ARIZONA

CITY           SKY/WX    TMP DP  RH WIND       PRES   REMARKS
CRAIG, CO      PTSUNNY   22  10  60 CALM      30.22S
GRAND JUNCTION PTSUNNY   27  21  78 N5        30.27S WCI  22
RIFLE, CO      PTSUNNY   30  15  53 W9        30.24R WCI  22
MONTROSE, CO   MOSUNNY   34  10  37 N6        30.24S WCI  29
CORTEZ, CO     SUNNY     35  15  44 W8        30.22R WCI  29
COLORADO CITY    N/A     45  18  33 NW3       30.24F
PAGE, AZ       SUNNY     41  11  29 NE5       30.23F
GRAND CANYON   SUNNY     42   9  25 CALM      30.20R
KINGMAN, AZ    SUNNY    N/A N/A N/A N9        30.20F
FLAGSTAFF, AZ  SUNNY     35   5  28 E8        30.19R WCI  29

$$

REGIONAL REPORTS    NEVADA/IDAHO/WYOMING

CITY           SKY/WX    TMP DP  RH WIND       PRES   REMARKS
LAS VEGAS, NV  MOSUNNY   53  21  28 SE3       30.24F
ELY, NY        PTSUNNY   32  27  81 CALM      30.22S
ELKO, NV       CLOUDY    38  22  52 W5        30.24R WCI  34
POCATELLO, ID  CLOUDY    34  27  75 S18G24    30.21R WCI  23
BURLEY, ID     CLOUDY    38  30  73 W10       30.21R WCI  31
FORT BRIDGER,  CLOUDY    26  17  69 W15       30.20R WCI  14
EVANSTON, WY   PTSUNNY   22  16  78 SW16      30.17S WCI   8
ROCK SPRINGS,  CLOUDY    20  16  84 SW18      30.15S WCI   5

$$




USA.gov is the U.S. government's official web portal to all federal, state and local government web resources and services.